Location: Unspecified
(0.0000°N, 0.0000°E)
Time: 17:53:33
(UTC+00:00)

Vanguard 1 - Pass Details

Date: 03 October 2020
Orbit: 650 x 3833 km, 34.3° (Epoch: 26 October)

Event Time Altitude Azimuth Distance (km) Brightness Sun altitude
Rises 09:40:46 0° 232° (SW) 6,254 13.9 57.7°
Reaches altitude 10° 09:47:07 10° 214° (SW) 5,822 14.0 59.3°
Maximum altitude 09:58:44 18° 176° (S) 5,893 14.4 62.2°
Drops below altitude 10° 10:12:29 10° 139° (SE) 6,940 14.8 65.5°
Sets 10:21:31 0° 122° (ESE) 7,876 15.0 67.8°
